Regional Weather Roundup
Issued by NWS

Home | Current Version | Previous Version | Graphics & Text | Print | Product List | Glossary On
Versions: 1 2 3 4 5 6 7 8 9 10 11 12 13 14 15 16 17 18 19 20 21 22 23 24 25 26 27 28 29 30 31 32 33 34 35 36 37 38 39 40 41 42 43 44 45 46 47 48 49 50
000
ASUS43 KBIS 261210
RWRND

NORTH DAKOTA REGIONAL WEATHER ROUNDUP
NATIONAL WEATHER SERVICE BISMARCK ND
700 AM CDT SAT JUL 26 2014

NOTE: "FAIR" INDICATES FEW OR NO CLOUDS BELOW 12,000 FEET WITH NO
SIGNIFICANT WEATHER AND/OR OBSTRUCTIONS TO VISIBILITY.


NDZ001>003-009>011-017-261300-
NORTHWEST NORTH DAKOTA

CITY           SKY/WX    TMP DP  RH WIND       PRES   REMARKS
WILLISTON      CLEAR     57  49  74 W15G22    29.88R
6HR MIN TEMP:  55; 6HR MAX TEMP:  58;

MINOT          CLEAR     59  50  72 SW15G22   29.79R
MINOT AFB      CLEAR     58  53  85 W14       29.78R
$$

NDZ018>021-031>035-040>046-261300-
SOUTHWEST NORTH DAKOTA

CITY           SKY/WX    TMP DP  RH WIND       PRES   REMARKS
BISMARCK       CLEAR     58  52  80 NW6       29.87R
6HR MIN TEMP:  55; 6HR MAX TEMP:  64;

DICKINSON      CLEAR     56  47  71 W13       29.93R
GARRISON         N/A     56  52  86 W9        29.85R
6HR MIN TEMP:  52; 6HR MAX TEMP:  60;

HETTINGER ARPT CLEAR     56  44  64 NW12      29.97R
$$

NDZ004>008-012>016-024-026-027-054-261300-
NORTHEAST NORTH DAKOTA

CITY           SKY/WX    TMP DP  RH WIND       PRES   REMARKS
GRAND FORKS    CLEAR     60  55  83 S6        29.73S
GRND FRKS AFB  CLEAR     62  58  87 SW8       29.74S
DEVILS LAKE    CLEAR     63  55  77 W10       29.76R
$$

NDZ022-023-025-028>030-036>039-047>053-261300-
SOUTHEAST NORTH DAKOTA

CITY           SKY/WX    TMP DP  RH WIND       PRES   REMARKS
FARGO          CLEAR     60  56  86 S6        29.77F
6HR MIN TEMP:  57; 6HR MAX TEMP:  63;

JAMESTOWN      CLEAR     60  56  86 W7        29.81R
$$



USA.gov is the U.S. government's official web portal to all federal, state and local government web resources and services.